Location: Marcé
(47.5801°N, 0.3280°W)
Time: 10:11:07
(UTC+01:00)

BlueWalker 3 - Pass Details

Date: 05 December 2022
Orbit: 499 x 517 km, 53.2° (Epoch: 29 January)

Event Time Altitude Azimuth Distance (km) Brightness Sun altitude
Rises 19:15:56 0° 296° (WNW) 2,631 6.4 -20.3°
Reaches altitude 10° 19:18:12 10° 301° (WNW) 1,739 5.3 -20.7°
Enters shadow 19:21:48 51° 4° (N) 650 2.3 -21.3°
